Regional Weather Roundup
Issued by NWS

Home | Current Version | Previous Version | Graphics & Text | Print | Product List | Glossary On
Versions: 1 2 3 4 5 6 7 8 9 10 11 12 13 14 15 16 17 18 19 20 21 22 23 24 25 26 27
000
ASUS45 KPSR 190310
RWRAZ

ARIZONA HOURLY REGIONAL WEATHER ROUNDUP
NATIONAL WEATHER SERVICE PHOENIX AZ
800 PM MST SAT NOV 18 2017

NOTE: FAIR INDICATES FEW OR NO CLOUDS BELOW 12,000 FEET WITH NO
SIGNIFICANT WEATHER AND/OR OBSTRUCTIONS TO VISIBILITY.

AZZ001>003-036-190400-
NORTHWEST ARIZONA

CITY           SKY/WX    TMP DP  RH WIND       PRES   REMARKS
BULLHEAD CITY  CLEAR     63  14  15 N18       30.17R
KINGMAN        CLEAR     42  12  29 E10       30.23R
$$

AZZ004>008-015-016-018-190400-
NORTH CENTRAL ARIZONA

CITY           SKY/WX    TMP DP  RH WIND       PRES   REMARKS
GRAND CANYON   PTCLDY    28   0  29 E6        30.32R WCI  22
WILLIAMS       PTCLDY    34   1  25 SE8       30.30R WCI  27
PRESCOTT       CLEAR     40   9  28 SW3       30.24R
FLAGSTAFF      PTCLDY    26   1  34 E5        30.33R WCI  20
PAYSON         CLEAR     43   1  17 NE8       30.25S
PAGE           CLEAR     39  12  33 CALM      30.33R
$$

AZZ009>014-017-190400-
NORTHEAST ARIZONA

CITY           SKY/WX    TMP DP  RH WIND       PRES   REMARKS
WINSLOW        MOCLDY    27  -4  26 SW7       30.32S WCI  19
SAINT JOHNS    MOCLDY    35   8  32 CALM      30.30R
WINDOW ROCK    CLEAR     29  10  45 S3        30.35R
SHOW LOW       PTCLDY    34   1  25 E3        30.34R
$$

AZZ540-542>544-546-548-190400-
GREATER PHOENIX AREA

CITY           SKY/WX    TMP DP  RH WIND       PRES   REMARKS
PHOENIX        CLEAR     68  32  26 SW6       30.05R
BUCKEYE        CLEAR     61  19  20 NW8       30.08R
LUKE AFB       CLEAR     61  31  32 NW3       30.05R
DEER VALLEY    CLEAR     66  11  11 CALM      30.06R
SCOTTSDALE     CLEAR     66  29  24 CALM      30.08R
MESA-FALCON    PTCLDY    64  28  25 NE6       30.07S
MESA-GATEWAY   CLEAR    115  30   5 CALM      30.07R HX 106
CHANDLER       CLEAR     64  32  29 CALM      30.06
$$

AZZ539-553-190400-
SOUTHWEST MARICOPA COUNTY AND PINAL COUNTY

CITY           SKY/WX    TMP DP  RH WIND       PRES   REMARKS
CASA GRANDE    NOT AVBL
$$

AZZ503-504-507>509-190400-
SOUTHEAST ARIZONA

CITY           SKY/WX    TMP DP  RH WIND       PRES   REMARKS
TUCSON         CLEAR     62  28  27 W6        30.11R
DAVIS-MONTHAN  CLEAR     63  26  25 NW5       30.09R
RYAN FIELD     CLEAR     61  30  31 MISG      30.11S
NOGALES        CLEAR     65  31  28 NE9       30.12R
SIERRA VISTA   CLEAR     57  25  29 CALM      30.19R
DOUGLAS        CLEAR     57  26  30 CALM      30.16R
SAFFORD        CLEAR     54  21  27 SE6       30.14R
$$

AZZ532-190400-
SOUTHWEST ARIZONA

CITY           SKY/WX    TMP DP  RH WIND       PRES   REMARKS
YUMA           CLEAR     66  19  16 N7        30.09R
$$

CAZ041-043-047-048-061-525>527-560>570-190400-
SOUTHERN CALIFORNIA

CITY           SKY/WX    TMP DP  RH WIND       PRES   REMARKS
DOWNTOWN L.A.  PTCLDY    64  50  60 CALM      30.06R
L.A. AIRPORT   PTCLDY    64  55  72 W7        30.06S
SAN DIEGO      MOCLDY    64  59  83 NW6       30.08R
BURBANK        CLEAR     68  26  20 N7        30.07R
ONTARIO        PTCLDY    65  30  27 W5        30.08R
RIVERSIDE      MOCLDY    66  19  16 E7        30.08R
PALM SPRINGS   PTCLDY    72  15  11 NW9       30.13R
EL CENTRO NAS  MOCLDY    60  35  39 E8        30.12R
IMPERIAL       MOCLDY    68  30  24 NE5       30.10R
BLYTHE         CLEAR     61  11  14 N9        30.13S
NEEDLES        PTCLDY    62  10  13 NW7       30.17S
$$

NVZ020-UTZ003-190400-
SOUTHERN NEVADA-UTAH

CITY           SKY/WX    TMP DP  RH WIND       PRES   REMARKS
LAS VEGAS      CLEAR     53  14  21 W6        30.24R
SALT LAKE CITY PTCLDY    34  26  72 CALM      30.37S
$$

NMZ009-TXZ055-190400-
NEW MEXICO-WEST TEXAS

CITY           SKY/WX    TMP DP  RH WIND       PRES   REMARKS
ALBUQUERQUE    CLOUDY    43   6  21 N9        30.34S
EL PASO        CLEAR     53  27  36 E8        30.27R
$$


........................KEY........................
SKY/WX - SKY CONDITION/WEATHER
TMP    - TEMPERATURE IN FAHRENHEIT
DP     - DEW POINT IN FAHRENHEIT
RH     - RELATIVE HUMIDITY IN PERCENT
WIND   - DIRECTION AND SPEED IN MILES PER HOUR (MPH)
VRB    - VARIABLE WIND DIRECTION
PRES   - MEAN SEA LEVEL PRESSURE IN INCHES OF MERCURY
         F - FALLING PRESSURE   R - RISING PRESSURE
         S - STEADY PRESSURE
VSB    - VISIBILITY IN MILES
HX     - HEAT INDEX IN FAHRENHEIT
WCI    - WIND CHILL INDEX IN FAHRENHEIT
TC     - TEMPERATURE IN CELSIUS WHICH IS ALSO KNOWN AS
         TEMPERATURE IN CENTIGRADE
AFB    - AIR FORCE BASE
         LUKE AFB IS LUKE AIR FORCE BASE
         DAVIS-MONTHAN IS DAVIS-MONTHAN AIR FORCE BASE
NAS    - NAVAL AIR STATION
         EL CENTRO NAS IS EL CENTRO NAVAL AIR STATION
N/A    - NOT AVAILABLE





USA.gov is the U.S. government's official web portal to all federal, state and local government web resources and services.